Tracking 29892 objects as of 21-Nov-2024
HD Live streaming from Space Station
objects crossing your sky now

STARLINK-4691

Track STARLINK-4691 now!
10-day predictions
STARLINK-4691 is classified as:


NORAD ID: 53588
Int'l Code: 2022-104A
Perigee: 545.8 km
Apogee: 548.0 km
Inclination: 53.2 °
Period: 95.4 minutes
Semi major axis: 6917 km
RCS: Unknown
Launch date: August 28, 2022
Source: United States (US)
Launch site: AIR FORCE EASTERN TEST RANGE (AFETR)
Your satellite tracking list
Your tracking list is empty




NASA's NSSDC Master Catalog

Two Line Element Set (TLE):
1 53588U 22104A   24324.96246598 -.00000845  00000-0 -34978-4 0  9996
2 53588  53.2168 215.5007 0001585  81.8155 278.3017 15.08845223124422
Source of the keplerian elements: AFSPC